INMARSAT 5-F2

Last updated on Sun Apr 12 2026 00:02:53 GMT+0000 (Coordinated Universal Time)

1 40384U 15005A 26101.43852163 .00000000 00000+0 00000+0 0 9990 2 40384 0.0170 194.3557 0000860 175.7079 292.4571 1.00268088 40325
UTC large
Height (km)
Speed (km/s)
/
Latitude / Longitude
Inclination (degrees)
Orbital Period (minutes)
Azimuth
Elevation
Range (km)
Doppler Factor

Next 0 passes for location: London (51.5072 / 0.1276)

Sorry there are no passes over London.
INMARSAT 5-F2